User: anonymous   Login
Location: Hokitika
(42.7170°S, 170.9670°E)
Time: 14:49:30
(UTC+13:00)
Language:

SJ-6B - Orbit

View from above orbital plane
View from above orbital plane
View from above satellite
View from above satellite

Ground track
Ground track

The orbit data is extracted from the following two-line orbital elements,

1 28415U 04035C   19288.72886568 +.00000622 +00000-0 +44847-4 0  9991
2 28415 097.6491 327.5079 0053156 109.2608 251.4380 15.06742067826633
Epoch (UTC): 15 October 2019 17:29:33
Eccentricity: 0.0053156
inclination: 97.6491°
perigee height: 509 km
apogee height: 583 km
right ascension of ascending node: 327.5079°
argument of perigee: 109.2608°
revolutions per day: 15.06742067
mean anomaly at epoch: 251.4380°
orbit number at epoch: 82663

The dashed part of the orbit path shows where the satellite is in the earth's shadow,  

DLR